ICE208 BIKF-EKCH

Flight info

Callsign ICE208
Flight time 2h 49m
Altitude 37000
Route OSKUM3A OSKUM DCT 6310N DCT GUNPA DCT AMSEV DCT TESPI TESPI4A
Aircraft B738/M-SDE2E3FGHIRWXY/LB1

Departure

Time 2026-04-23 13:54
Airport Keflavik International Airport (BIKF)

Arrival

Time 2026-04-23 16:43
Airport Copenhagen Kastrup Airport (EKCH)
Time Latitude Longitude Altitude Speed Heading
2026-04-23 13:17 63.99406 -22.61609 144 ft 0 kts 180°
2026-04-23 13:35 63.99426 -22.61609 144 ft 4 kts 180°
2026-04-23 13:36 63.99448 -22.61609 141 ft 4 kts 173°
2026-04-23 13:36 63.99467 -22.61630 141 ft 4 kts 108°
2026-04-23 13:36 63.99470 -22.61666 141 ft 3 kts 90°
2026-04-23 13:36 63.99470 -22.61606 141 ft 4 kts 90°
2026-04-23 13:37 63.99470 -22.61548 141 ft 2 kts 90°
2026-04-23 13:37 63.99470 -22.61545 141 ft 0 kts 90°
2026-04-23 13:42 63.99470 -22.61540 141 ft 2 kts 90°
2026-04-23 13:43 63.99462 -22.61462 140 ft 8 kts 126°
2026-04-23 13:43 63.99411 -22.61430 142 ft 8 kts 178°
2026-04-23 13:43 63.99358 -22.61428 144 ft 7 kts 179°
2026-04-23 13:43 63.99302 -22.61428 147 ft 9 kts 181°
2026-04-23 13:44 63.99239 -22.61430 150 ft 9 kts 180°
2026-04-23 13:44 63.99182 -22.61399 152 ft 9 kts 135°
2026-04-23 13:44 63.99173 -22.61268 155 ft 8 kts 89°
2026-04-23 13:44 63.99173 -22.61136 158 ft 8 kts 90°
2026-04-23 13:45 63.99171 -22.61009 163 ft 8 kts 103°
2026-04-23 13:45 63.99129 -22.60943 164 ft 8 kts 172°
2026-04-23 13:45 63.99046 -22.60938 168 ft 16 kts 180°
2026-04-23 13:45 63.98910 -22.60939 169 ft 22 kts 180°
2026-04-23 13:46 63.98743 -22.60940 164 ft 25 kts 180°
2026-04-23 13:46 63.98576 -22.60941 167 ft 23 kts 180°
2026-04-23 13:46 63.98418 -22.60941 165 ft 22 kts 180°
2026-04-23 13:46 63.98264 -22.60941 163 ft 22 kts 180°
2026-04-23 13:47 63.98114 -22.60940 166 ft 21 kts 180°
2026-04-23 13:47 63.97970 -22.60941 168 ft 20 kts 180°
2026-04-23 13:47 63.97836 -22.60941 169 ft 18 kts 180°
2026-04-23 13:47 63.97697 -22.60941 168 ft 20 kts 180°
2026-04-23 13:48 63.97558 -22.60940 166 ft 20 kts 180°
2026-04-23 13:48 63.97423 -22.60941 164 ft 19 kts 180°
2026-04-23 13:48 63.97292 -22.60941 160 ft 18 kts 180°
2026-04-23 13:48 63.97162 -22.60941 155 ft 19 kts 180°
2026-04-23 13:49 63.97021 -22.60940 150 ft 21 kts 180°
2026-04-23 13:49 63.96871 -22.60941 145 ft 21 kts 180°
2026-04-23 13:49 63.96735 -22.60941 140 ft 18 kts 180°
2026-04-23 13:49 63.96614 -22.60941 135 ft 17 kts 180°
2026-04-23 13:50 63.96510 -22.60942 134 ft 10 kts 180°
2026-04-23 13:50 63.96462 -22.60858 135 ft 8 kts 100°
2026-04-23 13:50 63.96461 -22.60767 138 ft 0 kts 90°
2026-04-23 13:52 63.96460 -22.60714 140 ft 6 kts 90°
2026-04-23 13:53 63.96460 -22.60604 143 ft 10 kts 84°
2026-04-23 13:53 63.96520 -22.60535 145 ft 11 kts 357°
2026-04-23 13:53 63.96614 -22.60541 148 ft 17 kts
2026-04-23 13:53 63.96930 -22.60544 159 ft 79 kts
2026-04-23 13:54 63.97694 -22.60540 171 ft 138 kts 359°
2026-04-23 13:54 63.98764 -22.60524 520 ft 158 kts 358°
2026-04-23 13:54 63.99872 -22.60528 1190 ft 163 kts 359°
2026-04-23 13:54 64.01056 -22.60495 1789 ft 180 kts 357°
2026-04-23 13:55 64.02377 -22.60517 2339 ft 196 kts 358°
2026-04-23 13:55 64.03780 -22.60483 2896 ft 206 kts 358°
2026-04-23 13:55 64.05238 -22.60225 3416 ft 216 kts 12°
2026-04-23 13:55 64.06591 -22.58688 3945 ft 225 kts 41°
2026-04-23 13:56 64.07482 -22.55587 4319 ft 243 kts 71°
2026-04-23 13:56 64.07642 -22.51712 4842 ft 257 kts 95°
2026-04-23 13:56 64.07262 -22.47546 5284 ft 277 kts 108°
2026-04-23 13:56 64.06524 -22.43492 6208 ft 275 kts 115°
2026-04-23 13:57 64.05707 -22.39525 7077 ft 277 kts 117°
2026-04-23 13:57 64.04808 -22.35609 7884 ft 279 kts 119°
2026-04-23 13:57 64.03855 -22.31696 8589 ft 286 kts 120°
2026-04-23 13:57 64.02865 -22.27711 9360 ft 289 kts 120°
2026-04-23 13:58 64.01871 -22.23733 10273 ft 289 kts 120°
2026-04-23 13:58 64.00863 -22.19707 10849 ft 300 kts 120°
2026-04-23 13:58 63.99788 -22.15416 11077 ft 322 kts 120°
2026-04-23 13:58 63.98656 -22.10901 11616 ft 331 kts 119°
2026-04-23 13:59 63.97506 -22.06322 12356 ft 335 kts 119°
2026-04-23 13:59 63.96344 -22.01705 13164 ft 337 kts 119°
2026-04-23 13:59 63.95171 -21.97051 13948 ft 341 kts 118°
2026-04-23 13:59 63.93981 -21.92335 14661 ft 346 kts 118°
2026-04-23 14:00 63.93186 -21.89188 15175 ft 347 kts 118°
2026-04-23 14:00 63.91589 -21.82890 16276 ft 348 kts 118°
2026-04-23 14:00 63.90372 -21.78103 17046 ft 351 kts 118°
2026-04-23 14:00 63.89142 -21.73278 17806 ft 354 kts 117°
2026-04-23 14:01 63.87903 -21.68422 18547 ft 357 kts 117°
2026-04-23 14:01 63.86651 -21.63532 19223 ft 360 kts 117°
2026-04-23 14:01 63.85384 -21.58598 19878 ft 363 kts 117°
2026-04-23 14:01 63.84109 -21.53642 20548 ft 365 kts 117°
2026-04-23 14:02 63.82823 -21.48655 21207 ft 368 kts 117°
2026-04-23 14:02 63.81526 -21.43636 21869 ft 371 kts 116°
2026-04-23 14:02 63.80219 -21.38583 22491 ft 374 kts 116°
2026-04-23 14:02 63.78899 -21.33492 23103 ft 377 kts 116°
2026-04-23 14:03 63.77564 -21.28359 23717 ft 380 kts 116°
2026-04-23 14:03 63.76335 -21.23085 24231 ft 378 kts 105°
2026-04-23 14:03 63.75798 -21.17326 24734 ft 374 kts 94°
2026-04-23 14:03 63.75463 -21.11493 25259 ft 375 kts 94°
2026-04-23 14:04 63.75128 -21.05615 25718 ft 380 kts 94°
2026-04-23 14:04 63.74776 -20.99639 26075 ft 386 kts 95°
2026-04-23 14:04 63.74409 -20.93618 26569 ft 388 kts 95°
2026-04-23 14:04 63.74030 -20.87558 27078 ft 390 kts 95°
2026-04-23 14:05 63.73642 -20.81481 27533 ft 392 kts 95°
2026-04-23 14:05 63.73247 -20.75366 27956 ft 395 kts 95°
2026-04-23 14:05 63.72851 -20.69278 28374 ft 398 kts 95°
2026-04-23 14:05 63.72445 -20.63073 28809 ft 401 kts 95°
2026-04-23 14:06 63.72035 -20.56831 29224 ft 403 kts 95°
2026-04-23 14:06 63.71619 -20.50553 29617 ft 406 kts 96°
2026-04-23 14:06 63.71200 -20.44225 29978 ft 409 kts 95°
2026-04-23 14:06 63.70888 -20.37824 30366 ft 411 kts 92°
2026-04-23 14:07 63.70673 -20.31370 30685 ft 413 kts 91°
2026-04-23 14:07 63.70313 -20.18354 31243 ft 419 kts 92°
2026-04-23 14:07 63.70125 -20.11783 31516 ft 422 kts 92°
2026-04-23 14:08 63.69925 -20.05167 31787 ft 424 kts 92°
2026-04-23 14:08 63.69714 -19.98516 32043 ft 427 kts 92°
2026-04-23 14:08 63.69492 -19.91823 32301 ft 430 kts 93°
2026-04-23 14:08 63.69265 -19.85174 32556 ft 432 kts 93°
2026-04-23 14:09 63.69026 -19.78319 32808 ft 434 kts 93°
2026-04-23 14:09 63.68784 -19.71513 33072 ft 436 kts 94°
2026-04-23 14:09 63.68542 -19.64791 33397 ft 437 kts 94°
2026-04-23 14:09 63.68293 -19.57959 33700 ft 437 kts 94°
2026-04-23 14:10 63.68040 -19.51124 34033 ft 437 kts 94°
2026-04-23 14:10 63.67785 -19.44302 34368 ft 437 kts 95°
2026-04-23 14:10 63.67526 -19.37476 34639 ft 438 kts 95°
2026-04-23 14:10 63.67263 -19.30617 34809 ft 441 kts 95°
2026-04-23 14:11 63.66995 -19.23707 34923 ft 444 kts 95°
2026-04-23 14:11 63.66723 -19.16778 35195 ft 444 kts 95°
2026-04-23 14:11 63.66448 -19.09866 35530 ft 442 kts 95°
2026-04-23 14:11 63.66171 -19.02983 35819 ft 441 kts 95°
2026-04-23 14:12 63.65890 -18.96095 36027 ft 443 kts 96°
2026-04-23 14:12 63.65605 -18.89184 36258 ft 443 kts 96°
2026-04-23 14:12 63.65317 -18.82279 36539 ft 442 kts 96°
2026-04-23 14:12 63.65026 -18.75382 36809 ft 442 kts 96°
2026-04-23 14:13 63.64732 -18.68513 37124 ft 440 kts 96°
2026-04-23 14:13 63.64436 -18.61660 37370 ft 440 kts 96°
2026-04-23 14:13 63.63833 -18.47934 37410 ft 448 kts 96°
2026-04-23 14:14 63.63200 -18.33857 37417 ft 455 kts 97°
2026-04-23 14:14 63.62557 -18.19842 37409 ft 457 kts 97°
2026-04-23 14:15 63.61889 -18.05597 37398 ft 456 kts 97°
2026-04-23 14:15 63.61214 -17.91498 37400 ft 450 kts 97°
2026-04-23 14:16 63.60533 -17.77559 37398 ft 447 kts 97°
2026-04-23 14:16 63.59843 -17.63734 37407 ft 446 kts 97°
2026-04-23 14:17 63.59131 -17.49766 37425 ft 453 kts 97°
2026-04-23 14:17 63.58398 -17.35652 37419 ft 457 kts 98°
2026-04-23 14:18 63.57647 -17.21448 37405 ft 459 kts 98°
2026-04-23 14:18 63.56880 -17.07228 37407 ft 459 kts 98°
2026-04-23 14:19 63.56100 -16.93014 37416 ft 458 kts 98°
2026-04-23 14:19 63.55307 -16.78848 37419 ft 457 kts 98°
2026-04-23 14:20 63.54502 -16.64721 37419 ft 456 kts 98°
2026-04-23 14:20 63.53685 -16.50627 37425 ft 455 kts 99°
2026-04-23 14:21 63.52856 -16.36578 37422 ft 454 kts 99°
2026-04-23 14:21 63.52014 -16.22551 37420 ft 454 kts 99°
2026-04-23 14:22 63.51165 -16.08647 37428 ft 453 kts 99°
2026-04-23 14:22 63.50299 -15.94676 37425 ft 453 kts 99°
2026-04-23 14:23 63.49420 -15.80732 37424 ft 452 kts 99°
2026-04-23 14:23 63.48527 -15.66798 37426 ft 453 kts 100°
2026-04-23 14:24 63.47619 -15.52849 37434 ft 453 kts 100°
2026-04-23 14:24 63.46697 -15.38892 37426 ft 454 kts 100°
2026-04-23 14:25 63.45758 -15.24906 37433 ft 455 kts 100°
2026-04-23 14:25 63.44804 -15.10894 37432 ft 457 kts 101°
2026-04-23 14:26 63.43833 -14.96852 37436 ft 458 kts 101°
2026-04-23 14:26 63.42845 -14.82781 37437 ft 459 kts 101°
2026-04-23 14:27 63.42014 -14.71090 37438 ft 459 kts 101°
2026-04-23 14:27 63.41000 -14.57024 37427 ft 459 kts 101°
2026-04-23 14:28 63.39974 -14.42986 37434 ft 458 kts 101°
2026-04-23 14:28 63.38936 -14.28976 37443 ft 458 kts 102°
2026-04-23 14:29 63.37884 -14.14989 37438 ft 457 kts 102°
2026-04-23 14:29 63.36820 -14.01019 37443 ft 457 kts 102°
2026-04-23 14:30 63.35742 -13.87066 37435 ft 457 kts 102°
2026-04-23 14:30 63.34651 -13.73129 37439 ft 457 kts 102°
2026-04-23 14:31 63.33547 -13.59203 37452 ft 457 kts 102°
2026-04-23 14:31 63.32428 -13.45273 37454 ft 458 kts 103°
2026-04-23 14:32 63.31300 -13.31415 37451 ft 458 kts 103°
2026-04-23 14:32 63.30150 -13.17459 37454 ft 459 kts 103°
2026-04-23 14:33 63.28986 -13.03507 37454 ft 459 kts 103°
2026-04-23 14:33 63.27806 -12.89552 37448 ft 459 kts 103°
2026-04-23 14:34 63.26614 -12.75608 37461 ft 460 kts 103°
2026-04-23 14:34 63.25406 -12.61663 37462 ft 460 kts 103°
2026-04-23 14:35 63.24185 -12.47733 37462 ft 460 kts 103°
2026-04-23 14:35 63.22949 -12.33794 37461 ft 460 kts 103°
2026-04-23 14:36 63.21700 -12.19887 37447 ft 460 kts 103°
2026-04-23 14:36 63.20440 -12.06002 37465 ft 460 kts 103°
2026-04-23 14:37 63.19163 -11.92111 37473 ft 460 kts 104°
2026-04-23 14:37 63.17872 -11.78212 37474 ft 461 kts 104°
2026-04-23 14:38 63.16564 -11.64298 37473 ft 462 kts 104°
2026-04-23 14:38 63.15242 -11.50384 37481 ft 463 kts 104°
2026-04-23 14:39 63.13902 -11.36447 37465 ft 463 kts 104°
2026-04-23 14:39 63.12558 -11.22614 37482 ft 463 kts 104°
2026-04-23 14:40 63.11191 -11.08696 37480 ft 464 kts 104°
2026-04-23 14:40 63.09809 -10.94781 37482 ft 464 kts 104°
2026-04-23 14:41 63.08413 -10.80877 37482 ft 464 kts 104°
2026-04-23 14:41 63.07004 -10.66989 37482 ft 464 kts 105°
2026-04-23 14:42 63.05581 -10.53108 37476 ft 463 kts 104°
2026-04-23 14:42 63.04148 -10.39278 37480 ft 463 kts 104°
2026-04-23 14:43 63.02703 -10.25473 37486 ft 462 kts 105°
2026-04-23 14:43 63.01247 -10.11679 37488 ft 462 kts 104°
2026-04-23 14:44 62.99732 -9.97928 37487 ft 462 kts 108°
2026-04-23 14:44 62.97732 -9.84530 37494 ft 461 kts 111°
2026-04-23 14:45 62.95610 -9.71227 37497 ft 461 kts 111°
2026-04-23 14:45 62.93496 -9.57937 37488 ft 461 kts 110°
2026-04-23 14:46 62.91411 -9.44736 37495 ft 461 kts 111°
2026-04-23 14:46 62.89298 -9.31382 37501 ft 460 kts 110°
2026-04-23 14:47 62.87188 -9.18132 37495 ft 460 kts 110°
2026-04-23 14:47 62.85067 -9.04918 37487 ft 460 kts 111°
2026-04-23 14:48 62.82934 -8.91728 37490 ft 460 kts 110°
2026-04-23 14:48 62.80787 -8.78546 37505 ft 460 kts 111°
2026-04-23 14:49 62.78635 -8.65432 37504 ft 461 kts 111°
2026-04-23 14:49 62.76454 -8.52231 37501 ft 463 kts 111°
2026-04-23 14:50 62.74256 -8.39023 37510 ft 463 kts 111°
2026-04-23 14:50 62.72041 -8.25809 37504 ft 464 kts 111°
2026-04-23 14:51 62.69810 -8.12597 37507 ft 465 kts 111°
2026-04-23 14:51 62.67565 -7.99388 37505 ft 465 kts 111°
2026-04-23 14:52 62.65308 -7.86207 37511 ft 465 kts 112°
2026-04-23 14:52 62.63055 -7.73134 37510 ft 465 kts 112°
2026-04-23 14:53 62.60774 -7.59994 37503 ft 465 kts 112°
2026-04-23 14:53 62.58481 -7.46877 37511 ft 465 kts 112°
2026-04-23 14:54 62.56175 -7.33775 37511 ft 465 kts 112°
2026-04-23 14:54 62.53854 -7.20682 37516 ft 465 kts 112°
2026-04-23 14:55 62.51519 -7.07593 37517 ft 466 kts 112°
2026-04-23 14:55 62.49171 -6.94522 37515 ft 466 kts 112°
2026-04-23 14:56 62.46807 -6.81454 37515 ft 467 kts 112°
2026-04-23 14:56 62.44431 -6.68404 37511 ft 467 kts 112°
2026-04-23 14:57 62.42058 -6.55459 37505 ft 467 kts 112°
2026-04-23 14:57 62.39654 -6.42428 37510 ft 467 kts 113°
2026-04-23 14:58 62.37238 -6.29423 37500 ft 468 kts 113°
2026-04-23 14:58 62.34807 -6.16425 37513 ft 468 kts 113°
2026-04-23 14:59 62.32360 -6.03424 37511 ft 469 kts 113°
2026-04-23 14:59 62.29897 -5.90424 37510 ft 470 kts 114°
2026-04-23 15:00 62.27416 -5.77415 37512 ft 471 kts 114°
2026-04-23 15:00 62.24919 -5.64410 37513 ft 472 kts 114°
2026-04-23 15:01 62.22406 -5.51405 37508 ft 472 kts 114°
2026-04-23 15:01 62.19880 -5.38416 37506 ft 472 kts 114°
2026-04-23 15:02 62.17342 -5.25452 37509 ft 472 kts 114°
2026-04-23 15:02 62.14793 -5.12514 37509 ft 472 kts 114°
2026-04-23 15:03 62.12235 -4.99607 37494 ft 472 kts 115°
2026-04-23 15:03 62.09662 -4.86714 37508 ft 472 kts 115°
2026-04-23 15:04 62.07077 -4.73844 37514 ft 472 kts 115°
2026-04-23 15:04 62.04494 -4.61059 37510 ft 473 kts 115°
2026-04-23 15:05 62.01876 -4.48187 37511 ft 473 kts 115°
2026-04-23 15:05 61.99244 -4.35325 37510 ft 474 kts 116°
2026-04-23 15:06 61.96597 -4.22473 37516 ft 474 kts 116°
2026-04-23 15:06 61.93941 -4.09654 37515 ft 474 kts 116°
2026-04-23 15:07 61.91272 -3.96852 37512 ft 474 kts 116°
2026-04-23 15:07 61.88590 -3.84067 37510 ft 474 kts 116°
2026-04-23 15:08 61.85901 -3.71328 37502 ft 474 kts 117°
2026-04-23 15:09 61.81848 -3.52276 37506 ft 473 kts 118°
2026-04-23 15:09 61.79135 -3.39616 37508 ft 472 kts 118°
2026-04-23 15:10 61.76875 -3.29129 37510 ft 471 kts 118°
2026-04-23 15:10 61.73708 -3.14521 37509 ft 471 kts 118°
2026-04-23 15:11 61.70973 -3.01987 37507 ft 470 kts 118°
2026-04-23 15:11 61.68230 -2.89493 37507 ft 470 kts 118°
2026-04-23 15:12 61.65477 -2.77027 37501 ft 469 kts 119°
2026-04-23 15:12 61.62718 -2.64602 37506 ft 469 kts 119°
2026-04-23 15:13 61.59949 -2.52213 37504 ft 468 kts 119°
2026-04-23 15:13 61.57173 -2.39858 37503 ft 468 kts 119°
2026-04-23 15:14 61.54385 -2.27527 37506 ft 468 kts 120°
2026-04-23 15:14 61.51589 -2.15229 37508 ft 467 kts 120°
2026-04-23 15:15 61.48783 -2.02955 37501 ft 467 kts 120°
2026-04-23 15:15 61.45969 -1.90718 37506 ft 467 kts 120°
2026-04-23 15:16 61.43622 -1.80567 37506 ft 467 kts 120°
2026-04-23 15:16 61.40329 -1.66401 37517 ft 467 kts 120°
2026-04-23 15:17 61.37482 -1.54229 37502 ft 467 kts 120°
2026-04-23 15:17 61.35089 -1.44053 37502 ft 467 kts 120°
2026-04-23 15:18 61.32223 -1.31924 37487 ft 467 kts 120°
2026-04-23 15:18 61.29363 -1.19891 37498 ft 467 kts 120°
2026-04-23 15:19 61.26474 -1.07804 37504 ft 467 kts 120°
2026-04-23 15:19 61.23569 -0.95714 37499 ft 468 kts 120°
2026-04-23 15:20 61.20648 -0.83625 37504 ft 469 kts 120°
2026-04-23 15:20 61.17712 -0.71540 37501 ft 469 kts 120°
2026-04-23 15:21 61.14765 -0.59477 37505 ft 470 kts 121°
2026-04-23 15:21 61.11803 -0.47420 37493 ft 470 kts 121°
2026-04-23 15:22 61.08833 -0.35393 37501 ft 470 kts 121°
2026-04-23 15:22 61.05851 -0.23384 37501 ft 470 kts 121°
2026-04-23 15:23 61.02862 -0.11407 37490 ft 469 kts 121°
2026-04-23 15:23 60.99854 0.00538 37475 ft 469 kts 122°
2026-04-23 15:24 60.96451 0.11935 37499 ft 466 kts 126°
2026-04-23 15:24 60.92870 0.23066 37504 ft 467 kts 127°
2026-04-23 15:25 60.89285 0.34220 37499 ft 468 kts 126°
2026-04-23 15:25 60.85721 0.45411 37496 ft 469 kts 126°
2026-04-23 15:26 60.82158 0.56614 37494 ft 469 kts 126°
2026-04-23 15:26 60.78585 0.67809 37493 ft 470 kts 126°
2026-04-23 15:27 60.74999 0.78982 37490 ft 469 kts 126°
2026-04-23 15:27 60.71408 0.90115 37488 ft 469 kts 126°
2026-04-23 15:28 60.67831 1.01150 37492 ft 469 kts 126°
2026-04-23 15:28 60.64220 1.12238 37488 ft 469 kts 126°
2026-04-23 15:29 60.60598 1.23305 37487 ft 469 kts 126°
2026-04-23 15:29 60.56966 1.34349 37489 ft 469 kts 127°
2026-04-23 15:30 60.53332 1.45350 37490 ft 469 kts 127°
2026-04-23 15:30 60.49691 1.56319 37486 ft 468 kts 127°
2026-04-23 15:31 60.46046 1.67248 37488 ft 468 kts 127°
2026-04-23 15:31 60.42393 1.78149 37483 ft 467 kts 127°
2026-04-23 15:32 60.38739 1.89003 37485 ft 467 kts 127°
2026-04-23 15:32 60.35075 1.99834 37483 ft 467 kts 127°
2026-04-23 15:33 60.31406 2.10633 37476 ft 466 kts 128°
2026-04-23 15:33 60.27734 2.21390 37478 ft 466 kts 128°
2026-04-23 15:34 60.24053 2.32122 37483 ft 465 kts 128°
2026-04-23 15:34 60.20367 2.42821 37474 ft 465 kts 128°
2026-04-23 15:35 60.16671 2.53498 37472 ft 465 kts 128°
2026-04-23 15:35 60.12970 2.64143 37468 ft 465 kts 129°
2026-04-23 15:36 60.09264 2.74754 37468 ft 464 kts 129°
2026-04-23 15:36 60.05550 2.85339 37472 ft 464 kts 129°
2026-04-23 15:37 60.01830 2.95893 37460 ft 464 kts 129°
2026-04-23 15:37 59.98099 3.06430 37460 ft 464 kts 129°
2026-04-23 15:38 59.94385 3.16872 37465 ft 464 kts 129°
2026-04-23 15:38 59.90637 3.27364 37456 ft 465 kts 129°
2026-04-23 15:39 59.86882 3.37829 37453 ft 464 kts 129°
2026-04-23 15:39 59.83117 3.48272 37438 ft 465 kts 130°
2026-04-23 15:40 59.79344 3.58694 37450 ft 464 kts 130°
2026-04-23 15:40 59.75563 3.69092 37444 ft 465 kts 130°
2026-04-23 15:41 59.71772 3.79468 37443 ft 465 kts 130°
2026-04-23 15:41 59.67974 3.89820 37439 ft 465 kts 130°
2026-04-23 15:42 59.64166 4.00154 37428 ft 465 kts 130°
2026-04-23 15:42 59.60353 4.10455 37433 ft 465 kts 130°
2026-04-23 15:43 59.56526 4.20747 37421 ft 465 kts 130°
2026-04-23 15:43 59.52689 4.31022 37410 ft 465 kts 130°
2026-04-23 15:44 59.48844 4.41276 37409 ft 465 kts 130°
2026-04-23 15:44 59.44989 4.51509 37407 ft 466 kts 130°
2026-04-23 15:45 59.41124 4.61725 37403 ft 466 kts 130°
2026-04-23 15:45 59.37249 4.71921 37403 ft 466 kts 130°
2026-04-23 15:46 59.33361 4.82109 37401 ft 467 kts 130°
2026-04-23 15:46 59.29482 4.92229 37399 ft 468 kts 131°
2026-04-23 15:47 59.25565 5.02405 37402 ft 469 kts 131°
2026-04-23 15:47 59.21636 5.12569 37384 ft 469 kts 131°
2026-04-23 15:48 59.17698 5.22712 37394 ft 469 kts 131°
2026-04-23 15:48 59.13724 5.32903 37387 ft 469 kts 131°
2026-04-23 15:49 59.09789 5.42949 37381 ft 470 kts 131°
2026-04-23 15:49 59.05821 5.53038 37372 ft 470 kts 131°
2026-04-23 15:50 59.01842 5.63111 37374 ft 470 kts 131°
2026-04-23 15:50 58.97859 5.73153 37375 ft 470 kts 131°
2026-04-23 15:51 58.93869 5.83170 37379 ft 470 kts 131°
2026-04-23 15:51 58.89868 5.93168 37362 ft 470 kts 131°
2026-04-23 15:52 58.85865 6.03132 37351 ft 469 kts 131°
2026-04-23 15:52 58.81864 6.13050 37333 ft 468 kts 132°
2026-04-23 15:53 58.77856 6.22940 37325 ft 468 kts 132°
2026-04-23 15:53 58.73845 6.32798 37281 ft 467 kts 131°
2026-04-23 15:54 58.69833 6.42617 37293 ft 466 kts 131°
2026-04-23 15:54 58.65851 6.52327 37297 ft 463 kts 132°
2026-04-23 15:55 58.61818 6.62109 37271 ft 471 kts 132°
2026-04-23 15:55 58.57743 6.71957 37243 ft 472 kts 132°
2026-04-23 15:56 58.53687 6.81724 37223 ft 472 kts 132°
2026-04-23 15:56 58.49596 6.91534 37216 ft 472 kts 131°
2026-04-23 15:57 58.45490 7.01336 37212 ft 472 kts 131°
2026-04-23 15:57 58.41375 7.11120 37204 ft 473 kts 132°
2026-04-23 15:58 58.37245 7.20896 37206 ft 474 kts 132°
2026-04-23 15:58 58.33105 7.30657 37190 ft 474 kts 132°
2026-04-23 15:59 58.28959 7.40392 37193 ft 473 kts 132°
2026-04-23 15:59 58.24804 7.50108 37152 ft 474 kts 132°
2026-04-23 16:00 58.20641 7.59803 37139 ft 474 kts 132°
2026-04-23 16:00 58.16469 7.69481 37153 ft 474 kts 132°
2026-04-23 16:01 58.12287 7.79139 37142 ft 475 kts 132°
2026-04-23 16:01 58.08094 7.88784 37136 ft 475 kts 132°
2026-04-23 16:02 58.03894 7.98407 37127 ft 475 kts 132°
2026-04-23 16:02 57.99684 8.08014 37135 ft 475 kts 132°
2026-04-23 16:03 57.95468 8.17594 37146 ft 475 kts 132°
2026-04-23 16:03 57.91264 8.27110 37149 ft 475 kts 132°
2026-04-23 16:04 57.87028 8.36659 37132 ft 475 kts 132°
2026-04-23 16:04 57.82790 8.46174 37145 ft 475 kts 132°
2026-04-23 16:05 57.79262 8.54067 37147 ft 475 kts 132°
2026-04-23 16:05 57.75009 8.63550 37150 ft 476 kts 132°
2026-04-23 16:06 57.70744 8.73023 37157 ft 477 kts 132°
2026-04-23 16:06 57.66026 8.81643 37156 ft 473 kts 147°
2026-04-23 16:07 57.60361 8.87753 37147 ft 471 kts 154°
2026-04-23 16:07 57.54582 8.93487 37163 ft 471 kts 154°
2026-04-23 16:08 57.48809 8.99271 37167 ft 471 kts 154°
2026-04-23 16:08 57.43049 9.05090 37165 ft 472 kts 154°
2026-04-23 16:09 57.37318 9.10882 37182 ft 472 kts 154°
2026-04-23 16:09 57.31502 9.16740 37169 ft 473 kts 154°
2026-04-23 16:10 57.25748 9.22511 37183 ft 474 kts 154°
2026-04-23 16:10 57.19943 9.28311 37179 ft 474 kts 154°
2026-04-23 16:11 57.14138 9.34089 37183 ft 474 kts 154°
2026-04-23 16:11 57.08332 9.39848 37172 ft 474 kts 154°
2026-04-23 16:12 57.02525 9.45587 37171 ft 474 kts 154°
2026-04-23 16:12 56.96716 9.51307 37166 ft 474 kts 153°
2026-04-23 16:13 56.90900 9.57015 37182 ft 474 kts 153°
2026-04-23 16:13 56.82168 9.65545 37176 ft 475 kts 153°
2026-04-23 16:14 56.76336 9.71218 37183 ft 475 kts 154°
2026-04-23 16:14 56.70539 9.76837 36583 ft 468 kts 153°
2026-04-23 16:15 56.67673 9.79609 36031 ft 466 kts 153°
2026-04-23 16:15 56.64810 9.82371 35417 ft 466 kts 153°
2026-04-23 16:15 56.61945 9.85130 34796 ft 467 kts 153°
2026-04-23 16:15 56.59069 9.87895 34150 ft 468 kts 153°
2026-04-23 16:16 56.56182 9.90665 33413 ft 470 kts 153°
2026-04-23 16:16 56.53287 9.93439 32693 ft 471 kts 153°
2026-04-23 16:16 56.50391 9.96209 32185 ft 468 kts 153°
2026-04-23 16:16 56.47564 9.98911 31680 ft 464 kts 153°
2026-04-23 16:17 56.44721 10.01621 31205 ft 460 kts 153°
2026-04-23 16:17 56.41896 10.04311 30721 ft 457 kts 153°
2026-04-23 16:17 56.39096 10.06971 30259 ft 453 kts 153°
2026-04-23 16:17 56.36313 10.09610 29721 ft 450 kts 153°
2026-04-23 16:18 56.33560 10.12218 29234 ft 445 kts 153°
2026-04-23 16:18 56.30835 10.14794 28750 ft 440 kts 153°
2026-04-23 16:18 56.28139 10.17339 28279 ft 436 kts 153°
2026-04-23 16:18 56.25464 10.19860 27797 ft 432 kts 153°
2026-04-23 16:19 56.22813 10.22355 27330 ft 429 kts 153°
2026-04-23 16:19 56.20176 10.24832 26853 ft 426 kts 153°
2026-04-23 16:19 56.17562 10.27284 26396 ft 423 kts 153°
2026-04-23 16:19 56.14960 10.29720 25940 ft 420 kts 153°
2026-04-23 16:20 56.12377 10.32136 25492 ft 418 kts 153°
2026-04-23 16:20 56.09803 10.34540 25035 ft 416 kts 153°
2026-04-23 16:20 56.07239 10.36931 24587 ft 416 kts 153°
2026-04-23 16:20 56.04677 10.39316 24120 ft 415 kts 153°
2026-04-23 16:21 56.02121 10.41693 23652 ft 413 kts 153°
2026-04-23 16:21 55.99571 10.44060 23124 ft 412 kts 153°
2026-04-23 16:21 55.97038 10.46410 22658 ft 410 kts 153°
2026-04-23 16:21 55.94511 10.48747 22168 ft 408 kts 153°
2026-04-23 16:22 55.92056 10.51252 21690 ft 406 kts 142°
2026-04-23 16:22 55.90163 10.54907 21286 ft 400 kts 121°
2026-04-23 16:22 55.88979 10.59328 20812 ft 393 kts 103°
2026-04-23 16:22 55.88365 10.64037 20390 ft 388 kts 98°
2026-04-23 16:23 55.87836 10.68742 19934 ft 387 kts 98°
2026-04-23 16:23 55.87312 10.73432 19490 ft 385 kts 98°
2026-04-23 16:23 55.86775 10.78094 19050 ft 384 kts 98°
2026-04-23 16:23 55.86224 10.82728 18616 ft 382 kts 99°
2026-04-23 16:24 55.85664 10.87337 18121 ft 381 kts 99°
2026-04-23 16:24 55.85100 10.91932 17646 ft 379 kts 99°
2026-04-23 16:24 55.84511 10.96481 17194 ft 376 kts 101°
2026-04-23 16:24 55.83856 11.00975 16754 ft 374 kts 101°
2026-04-23 16:25 55.83192 11.05370 16324 ft 372 kts 102°
2026-04-23 16:25 55.82512 11.09853 15889 ft 369 kts 101°
2026-04-23 16:25 55.81858 11.14191 15468 ft 367 kts 101°
2026-04-23 16:25 55.81203 11.18561 15045 ft 365 kts 101°
2026-04-23 16:26 55.80555 11.22909 14627 ft 363 kts 101°
2026-04-23 16:26 55.79900 11.27297 14197 ft 362 kts 101°
2026-04-23 16:26 55.79259 11.31589 13947 ft 355 kts 100°
2026-04-23 16:26 55.78639 11.35726 13728 ft 347 kts 100°
2026-04-23 16:27 55.78023 11.39818 13571 ft 338 kts 100°
2026-04-23 16:27 55.77423 11.43797 13410 ft 329 kts 99°
2026-04-23 16:27 55.76982 11.47766 12991 ft 327 kts 93°
2026-04-23 16:27 55.76690 11.51744 12668 ft 324 kts 91°
2026-04-23 16:28 55.76421 11.55701 12334 ft 322 kts 91°
2026-04-23 16:28 55.76143 11.59633 12007 ft 320 kts 92°
2026-04-23 16:28 55.75851 11.63545 11682 ft 319 kts 92°
2026-04-23 16:28 55.75548 11.67441 11354 ft 318 kts 92°
2026-04-23 16:29 55.75239 11.71312 11033 ft 315 kts 92°
2026-04-23 16:29 55.74931 11.75112 10706 ft 308 kts 92°
2026-04-23 16:29 55.74627 11.78865 10410 ft 307 kts 92°
2026-04-23 16:29 55.74326 11.82569 10276 ft 299 kts 92°
2026-04-23 16:30 55.74031 11.86178 10132 ft 293 kts 92°
2026-04-23 16:30 55.73741 11.89752 9808 ft 292 kts 92°
2026-04-23 16:30 55.73450 11.93316 9517 ft 291 kts 92°
2026-04-23 16:30 55.73158 11.96859 9221 ft 290 kts 92°
2026-04-23 16:31 55.72865 12.00394 8929 ft 289 kts 93°
2026-04-23 16:31 55.72574 12.03910 8650 ft 288 kts 93°
2026-04-23 16:31 55.72281 12.07418 8361 ft 287 kts 93°
2026-04-23 16:31 55.71991 12.10908 8078 ft 286 kts 93°
2026-04-23 16:32 55.71699 12.14391 7806 ft 285 kts 94°
2026-04-23 16:32 55.71406 12.17869 7513 ft 285 kts 94°
2026-04-23 16:32 55.71106 12.21332 7227 ft 285 kts 97°
2026-04-23 16:32 55.70308 12.24557 6921 ft 292 kts 127°
2026-04-23 16:33 55.68846 12.27045 6673 ft 291 kts 139°
2026-04-23 16:33 55.67290 12.29343 6365 ft 291 kts 139°
2026-04-23 16:33 55.65739 12.31641 6065 ft 290 kts 139°
2026-04-23 16:33 55.64199 12.33948 5681 ft 292 kts 139°
2026-04-23 16:34 55.62639 12.36256 5364 ft 292 kts 143°
2026-04-23 16:34 55.60794 12.37640 5064 ft 289 kts 174°
2026-04-23 16:34 55.58841 12.37359 4891 ft 278 kts 200°
2026-04-23 16:34 55.57173 12.35844 4726 ft 264 kts 223°
2026-04-23 16:35 55.55799 12.33770 4588 ft 257 kts 226°
2026-04-23 16:35 55.54459 12.31679 4473 ft 257 kts 226°
2026-04-23 16:35 55.53114 12.29591 4334 ft 256 kts 226°
2026-04-23 16:35 55.51785 12.27550 4204 ft 250 kts 226°
2026-04-23 16:36 55.50488 12.25566 4055 ft 244 kts 225°
2026-04-23 16:36 55.49224 12.23628 3901 ft 239 kts 226°
2026-04-23 16:36 55.47965 12.21730 3720 ft 238 kts 220°
2026-04-23 16:36 55.46431 12.20667 3606 ft 242 kts 188°
2026-04-23 16:37 55.44764 12.21170 3501 ft 249 kts 155°
2026-04-23 16:37 55.43447 12.23122 3416 ft 251 kts 122°
2026-04-23 16:37 55.42864 12.25955 3320 ft 245 kts 89°
2026-04-23 16:37 55.42991 12.28893 3284 ft 240 kts 77°
2026-04-23 16:38 55.43235 12.31815 3188 ft 241 kts 76°
2026-04-23 16:38 55.43483 12.34704 3063 ft 235 kts 73°
2026-04-23 16:38 55.44110 12.37130 2953 ft 211 kts 37°
2026-04-23 16:38 55.45225 12.38622 2882 ft 193 kts 32°
2026-04-23 16:39 55.46214 12.40129 2785 ft 183 kts 34°
2026-04-23 16:39 55.47122 12.41559 2710 ft 175 kts 34°
2026-04-23 16:39 55.48030 12.42976 2696 ft 173 kts 34°
2026-04-23 16:39 55.48931 12.44376 2659 ft 174 kts 34°
2026-04-23 16:40 55.49856 12.45811 2467 ft 179 kts 35°
2026-04-23 16:40 55.50787 12.47259 2230 ft 176 kts 35°
2026-04-23 16:40 55.51676 12.48645 1991 ft 165 kts 35°
2026-04-23 16:40 55.52509 12.49941 1763 ft 155 kts 34°
2026-04-23 16:41 55.53286 12.51149 1592 ft 144 kts 34°
2026-04-23 16:41 55.54031 12.52303 1422 ft 137 kts 35°
2026-04-23 16:41 55.54728 12.53387 1189 ft 130 kts 33°
2026-04-23 16:41 55.55388 12.54414 1002 ft 127 kts 32°
2026-04-23 16:42 55.56075 12.55469 820 ft 135 kts 33°
2026-04-23 16:42 55.56803 12.56591 688 ft 142 kts 36°
2026-04-23 16:42 55.57550 12.57747 523 ft 142 kts 37°
2026-04-23 16:42 55.58284 12.58907 340 ft 139 kts 36°
2026-04-23 16:43 55.58996 12.60013 107 ft 134 kts 37°
2026-04-23 16:43 55.59668 12.61062 21 ft 116 kts 41°
2026-04-23 16:43 55.60122 12.61749 22 ft 55 kts 40°
2026-04-23 16:43 55.60374 12.62130 16 ft 37 kts 39°
2026-04-23 16:44 55.60531 12.62300 21 ft 20 kts 19°
2026-04-23 16:44 55.60652 12.62352 29 ft 16 kts 11°
2026-04-23 16:44 55.60751 12.62388 22 ft 15 kts 15°
2026-04-23 16:44 55.60836 12.62473 23 ft 14 kts 39°
2026-04-23 16:45 55.60917 12.62596 18 ft 18 kts 41°
2026-04-23 16:45 55.61015 12.62747 19 ft 19 kts 41°
2026-04-23 16:45 55.61111 12.62895 19 ft 18 kts 41°
2026-04-23 16:45 55.61203 12.63041 20 ft 17 kts 41°
2026-04-23 16:46 55.61293 12.63178 22 ft 17 kts 40°
2026-04-23 16:46 55.61383 12.63315 21 ft 18 kts 41°
2026-04-23 16:46 55.61474 12.63456 18 ft 18 kts 41°
2026-04-23 16:46 55.61570 12.63604 18 ft 18 kts 41°
2026-04-23 16:47 55.61664 12.63749 17 ft 17 kts 41°
2026-04-23 16:47 55.61751 12.63885 20 ft 16 kts 41°
2026-04-23 16:47 55.61834 12.64016 20 ft 16 kts 41°
2026-04-23 16:47 55.61924 12.64122 21 ft 15 kts 26°
2026-04-23 16:48 55.62021 12.64197 20 ft 16 kts 24°
2026-04-23 16:48 55.62117 12.64278 19 ft 16 kts 25°
2026-04-23 16:48 55.62219 12.64361 18 ft 16 kts 24°
2026-04-23 16:48 55.62317 12.64419 19 ft 13 kts 15°
2026-04-23 16:49 55.62375 12.64446 18 ft 13 kts 13°
2026-04-23 16:49 55.62453 12.64376 18 ft 10 kts 309°
2026-04-23 16:49 55.62494 12.64279 20 ft 10 kts 304°
2026-04-23 16:49 55.62541 12.64202 21 ft 9 kts 359°
2026-04-23 16:50 55.62597 12.64248 22 ft 8 kts 33°
2026-04-23 16:50 55.62646 12.64302 22 ft 9 kts 28°
2026-04-23 16:50 55.62685 12.64332 22 ft 4 kts 21°
2026-04-23 16:50 55.62702 12.64336 21 ft 2 kts 353°
2026-04-23 16:51 55.62718 12.64317 20 ft 4 kts 314°
2026-04-23 16:51 55.62726 12.64297 20 ft 2 kts 304°
2026-04-23 16:51 55.62731 12.64284 21 ft 0 kts 303°